Regional Weather Roundup
Issued by NWS Portland, ME

Home | Current Version | Previous Version | Text Only | Print | Product List | Glossary On
Versions: 1 2 3 4 5 6 7 8 9 10 11 12 13 14 15 16 17 18 19 20 21 22 23 24 25 26 27 28 29 30 31 32 33 34 35 36 37 38 39 40 41 42 43 44 45 46 47 48 49 50
000
ASUS41 KGYX 302110
RWRGYX
WEATHER ROUNDUP FOR MAINE AND NEW HAMPSHIRE
NATIONAL WEATHER SERVICE GRAY ME
500 PM EDT TUE AUG 30 2016

MEZ002-005-006-010-012-015-018-020-021-024-026-027-029-302200-
MAINE

CITY           SKY/WX    TMP DP  RH WIND       PRES   REMARKS
PORTLAND       PTSUNNY   74  53  48 S10       30.04S
SANFORD        CLOUDY    77  56  48 S8        30.03S
BAR HARBOR     PTSUNNY   73  57  57 SW14      30.01S
WISCASSET      CLOUDY    74  52  46 S6        30.05S
ROCKLAND       CLOUDY    72  54  53 SW12G17   30.03S
FRYEBURG       CLOUDY    76  54  46 SW7       30.04S
LEWISTONAUBURN CLOUDY    75  56  51 S7        30.03S
AUGUSTA        PTSUNNY   76  51  41 SW7       30.02F
WATERVILLE     CLOUDY    76  56  49 SW8       29.99F
BANGOR         PTSUNNY   78  52  40 W7        30.00S
GREENVILLE       N/A     68  49  50 VRB3      30.02F
MILLINOCKET    PTSUNNY   74  52  46 W7        30.00S
HOULTON        MOSUNNY   75  56  51 SW12      29.96R
PRESQUE ISLE   CLOUDY    64  60  87 S5        29.98S
FRENCHVILLE    CLOUDY    69  59  70 SW6       29.96F
CARIBOU        MOSUNNY   68  60  75 W5        29.96F
$$

NHZ002-005-008-009-011-012-014-302200-
NEW HAMPSHIRE

CITY           SKY/WX    TMP DP  RH WIND       PRES   REMARKS
PORTSMOUTH     PTSUNNY   76  56  50 SE13      30.02F
ROCHESTER      CLOUDY    80  55  42 S6        30.03S
NASHUA         MOSUNNY   83  51  33 W7        30.03F
MANCHESTER     PTSUNNY   82  48  30 W10       30.02F
CONCORD        SUNNY     81  51  35 W7        30.04S
LACONIA        CLOUDY    78  54  43 W6        30.05F
PLYMOUTH       PTSUNNY   78  55  44 W3        30.05S
BERLIN         CLOUDY    74  53  48 VRB3      30.06F
WHITEFIELD     CLOUDY    72  56  57 W5        30.07S
JAFFREY        SUNNY     78  50  37 SW9       30.08F
KEENE          SUNNY     80  55  42 SW7       30.05F
LEBANON        MOSUNNY   79  54  41 VRB6      30.05S
MT WASHINGTON  FOG       48  48 100 W25         N/A  VSB 1/8
$$

VTZ005-007-008-302200-
VERMONT

CITY           SKY/WX    TMP DP  RH WIND       PRES   REMARKS
ST JOHNSBURY     N/A     74  56  53 MISG      30.03F
MONTPELIER     MOSUNNY   72  54  53 SW3       30.11F
BURLINGTON     CLOUDY    77  56  48 S7        30.04S
$$

MAZ007-012-024-CTZ003-RIZ002-NYZ038-NYZ072-302200-
SOUTHERN NEW ENGLAND AND NY

CITY           SKY/WX    TMP DP  RH WIND       PRES   REMARKS
BOSTON         MOSUNNY   75  58  55 E16       30.04F
WORCESTER      SUNNY     77  52  41 W5        30.08F
NANTUCKET      SUNNY     72  59  63 S8        30.09F
PROVIDENCE     PTSUNNY   77  61  57 SE12      30.06F
HARTFORD       PTSUNNY   84  54  35 W10       30.05F
ALBANY         MOSUNNY   82  54  37 W8        30.05F
NEW YORK CITY  MOSUNNY   84  60  44 S9        30.05F
$$

ANZ081-ANZ082-ANZ150-NHZ014-MEZ023>029-302200-
COASTAL MARINE OBSERVATIONS

STATION/POSITION TIME  TEMP    WIND        PRES    WAVE
                       AIR SEA DIR/SP/G            HT/PER
                 (UTC) (F)     (DEG/KT/KT) (MB)    (FT/S)
MOUNT DESERT ROC 2100   62     220/ 18/ 19 1017.3S
MATINICUS ROCK   2000   63     220/ 17/ 17 1016.9F
ISLE OF SHOALS   2000   68     150/ 18/ 18 1017.2F
JEFFREYS LEDGE   2008      68                N/A     3/12
CASHES LEDGE BUO 2050   70 69  210/ 12/ 14 1018.0F   3/12
GEORGES BANK BUO 2050   69 71              1018.0F   4/11
$$

.............KEY..............
   WCI - WIND CHILL
   TC  - TEMPERATURE IN CELSIUS
   VSB - VISIBILITY IN MILES
   HX  - HEAT INDEX
   FAIR- INDICATES FEW OR NO CLOUDS BELOW 12,000 FT, WITH NO
         SIGNIFICANT WEATHER AND/OR OBSTRUCTIONS TO VISIBILITY.






USA.gov is the U.S. government's official web portal to all federal, state and local government web resources and services.